Weather History for Broken Bow, NE

Change the Weather History Date:

Sunday, February 12, 2012

  Actual Average Record
Temperature  
Mean Temperature 11 °F 27 °F  
Max Temperature 24 °F 40 °F 74 °F (1962)
Min Temperature -2 °F 14 °F -34 °F (1899)
Degree Days  
Heating Degree Days 54 38  
Month to date heating degree days 505 465  
Cooling Degree Days 0 0  
Month to date cooling degree days 0 0  
Year to date cooling degree days 0 0  
Moisture  
Dew Point 8 °F    
Average Humidity 74    
Maximum Humidity 86    
Minimum Humidity 61    
Precipitation  
Precipitation 0.00 in 0.02 in 0.60 in (1950)
Snow  
Snow 0.00 in - - ()
Snow Depth 0.00 in    
Sea Level Pressure  
Sea Level Pressure 30.27 in    
Wind  
Wind Speed 13 mph (SSE)    
Max Wind Speed 25 mph    
Max Gust Speed 36 mph    
Visibility 10 miles    
Events      
T = Trace of Precipitation, MM = Missing Value Source: NWS Daily Summary

Daily Weather History Graph

Daily Weather History Graph

Search for Another Location

Airport:

Trip Planner

Search our weather history database for the weather conditions in past years. The results will help you decide how hot, cold, wet, or windy it might be!

Date:

Astronomy

Feb. 12, 2012 Rise Set
Actual Time 7:38 AM CST 6:08 PM CST
Civil Twilight 7:09 AM CST 6:36 PM CST
Nautical Twilight 6:36 AM CST 7:09 PM CST
Astronomical Twilight 6:04 AM CST 7:41 PM CST
Moon No Moon Rise 9:52 AM CST (2/12)
Length of Visible Light 11h 27m
Length of Day
10h 29m
Waning Gibbous, 72% of the Moon is Illuminated
Feb 12
Waning Gibbous
Feb 14
Last Quarter
Feb 21
New
Feb 29
First Quarter
Mar 8
Full

Hourly Weather History & Observations

Time (CST) Temp. Windchill Dew Point Humidity Pressure Visibility Wind Dir Wind Speed Gust Speed Precip Events Conditions
12:53 AM 1.0 °F -6.7 °F -4.0 °F 79% 30.63 in 10.0 mi WSW 3.5 mph - N/A   Clear
1:53 AM -0.9 °F -11.0 °F -5.1 °F 83% 30.59 in 10.0 mi SE 4.6 mph - N/A   Clear
2:53 AM -0.9 °F -8.9 °F -4.0 °F 87% 30.57 in 10.0 mi SE 3.5 mph - N/A   Clear
3:53 AM 3.9 °F - -0.9 °F 80% 30.52 in 10.0 mi Calm Calm - N/A   Clear
4:53 AM 6.1 °F -6.8 °F -0.0 °F 76% 30.49 in 10.0 mi South 8.1 mph - N/A   Scattered Clouds
5:53 AM 5.0 °F - -0.0 °F 80% 30.47 in 10.0 mi Calm Calm - N/A   Scattered Clouds
6:53 AM 8.1 °F -2.0 °F 3.0 °F 80% 30.44 in 10.0 mi ESE 5.8 mph - N/A   Overcast
7:53 AM 10.0 °F -2.9 °F 3.9 °F 76% 30.41 in 10.0 mi South 9.2 mph - N/A   Overcast
8:53 AM 12.9 °F -0.9 °F 5.0 °F 71% 30.41 in 10.0 mi South 11.5 mph 20.7 mph N/A   Overcast
9:53 AM 16.0 °F -0.9 °F 6.1 °F 65% 30.38 in 10.0 mi South 19.6 mph 29.9 mph N/A   Overcast
10:53 AM 18.0 °F 1.7 °F 7.0 °F 62% 30.34 in 10.0 mi South 19.6 mph 33.4 mph N/A   Overcast
11:53 AM 21.0 °F 5.7 °F 10.9 °F 65% 30.31 in 10.0 mi South 19.6 mph 32.2 mph N/A   Clear
12:53 PM 21.9 °F 6.9 °F 12.9 °F 68% 30.25 in 10.0 mi South 19.6 mph 31.1 mph N/A   Clear
1:53 PM 23.0 °F 8.0 °F 14.0 °F 68% 30.20 in 10.0 mi South 20.7 mph 27.6 mph N/A   Clear
2:53 PM 24.1 °F 9.8 °F 16.0 °F 71% 30.16 in 10.0 mi SSE 19.6 mph 28.8 mph N/A   Clear
3:53 PM 24.1 °F 8.7 °F 15.1 °F 69% 30.14 in 10.0 mi SSE 23.0 mph 35.7 mph N/A   Clear
4:53 PM 23.0 °F 8.7 °F 14.0 °F 68% 30.09 in 10.0 mi South 18.4 mph 29.9 mph N/A   Clear
5:53 PM 21.9 °F 10.4 °F 14.0 °F 72% 30.08 in 10.0 mi SSE 11.5 mph 28.8 mph N/A   Clear
6:53 PM 21.0 °F 7.1 °F 12.9 °F 71% 30.06 in 10.0 mi SSE 16.1 mph 27.6 mph N/A   Clear
7:53 PM 19.9 °F 7.3 °F 10.9 °F 68% 30.04 in 10.0 mi SSE 12.7 mph 25.3 mph N/A   Clear
8:53 PM 19.9 °F 8.6 °F 12.0 °F 71% 30.02 in 10.0 mi SSE 10.4 mph - N/A   Partly Cloudy
9:53 PM 19.9 °F 7.3 °F 12.0 °F 71% 29.99 in 10.0 mi SSE 12.7 mph 23.0 mph N/A   Mostly Cloudy
10:53 PM 19.9 °F 6.7 °F 12.0 °F 71% 29.96 in 10.0 mi South 13.8 mph 23.0 mph N/A   Overcast
11:53 PM 19.9 °F 5.2 °F 14.0 °F 78% 29.94 in 10.0 mi South 17.3 mph 25.3 mph N/A   Overcast